{"data":{"norad_id":63297,"epoch":"2026-05-25T05:14:06.658368Z","epoch_age_seconds":52234,"freshness":"FRESH","line1":"1 63297U 25055G   26145.21813262  .00015367  00000+0  62557-3 0  9996","line2":"2 63297  97.6447 287.9005 0007944 225.9441 134.1142 15.24569590 65731","mean_motion":15.2456959,"eccentricity":0.0007944,"inclination_deg":97.6447,"raan_deg":287.9005,"arg_perigee_deg":225.9441,"mean_anomaly_deg":134.1142,"bstar":0.00062557,"rev_number":6573,"period_min":94.452887519552,"perigee_km":486.62047730483,"apogee_km":497.53587517684,"semimajor_km":6870.2151762408,"source":"CELESTRAK","updated_at":"2026-05-25T13:38:03.646849Z"}}